Regional Weather Roundup
Issued by NWS

Home | Current Version | Previous Version | Graphics & Text | Print | Product List | Glossary On
Versions: 1 2 3 4 5 6 7 8 9 10 11 12 13 14 15 16 17 18 19 20 21 22 23 24 25 26 27 28 29 30 31 32 33 34 35 36 37 38 39 40 41 42 43 44 45
000
ASUS45 KSLC 262010
RWRUT

UTAH REGIONAL WEATHER ROUNDUP
NATIONAL WEATHER SERVICE SALT LAKE CITY UT
100 PM MST FRI DEC 26 2014

UTZ001>011-023>025-262100-

NORTHERN UTAH

CITY           SKY/WX    TMP DP  RH WIND       PRES   REMARKS
BRIGHAM CITY   CLOUDY    28  13  54 CALM      30.05R
HILL AFB       PTSUNNY   25  14  63 NW15      30.00S WCI  12
LOGAN          SUNNY     21  11  65 CALM      30.04S
OGDEN          PTSUNNY   26  15  63 N13       30.01R WCI  15
PROVO AIRPORT  PTSUNNY   27  19  74 NW14      30.00R WCI  15
SALT LAKE CITY PTSUNNY   28  17  63 N14       30.03R WCI  17
VERNAL         CLOUDY    28  11  48 N8G21     29.89S WCI  20
WENDOVER       CLOUDY    32  12  43 W18       30.08S WCI  20
HEBER CITY     CLOUDY    28  14  54 CALM      29.93S
WEST JORDAN    CLOUDY    27  21  80 NW15      30.02R WCI  15

$$

UTZ012>022-026-027-262100-

SOUTHERN/CENTRAL UTAH

CITY           SKY/WX    TMP DP  RH WIND       PRES   REMARKS
BLANDING       CLOUDY    30  18  60 SW3       29.88S
BRYCE CANYON   FLURRIES  20  10  65 NW22      29.85S WCI   3
CEDAR CITY     CLOUDY    24  16  71 NE10      29.99S WCI  14
DELTA          CLOUDY    27  17  68 N15       30.02R WCI  15
MILFORD        LGT SNOW  26  19  74 NE8       30.02S WCI  18
MOAB/CYNLANDS  CLOUDY    29  22  75 NW3       29.87S
PRICE          CLOUDY    28   9  44 NW13      29.84S WCI  17
ST GEORGE      MOCLDY    43  18  36 SE9       30.02F
KANAB          SUNNY     34  14  44 S6        29.96F WCI  29

$$

REGIONAL REPORTS     COLORADO/ARIZONA

CITY           SKY/WX    TMP DP  RH WIND       PRES   REMARKS
CRAIG, CO      LGT SNOW  18  12  77 W13       29.83S WCI   5
GRAND JUNCTION LGT SNOW  25  23  92 W9        29.84S FOG     WCI  15
RIFLE          CLOUDY    26  14  60 W10       29.81S WCI  16
MONTROSE       MOSUNNY   28  20  71 NE3       29.80F
CORTEZ         CLOUDY    30  18  60 W10       29.79S WCI  21
PAGE, AZ       MOSUNNY   40   5  23 W8        29.89F WCI  34
GRAND CANYON   PTSUNNY   28  12  51 NW9       29.88F WCI  19
KINGMAN        SUNNY     43  13  29 N13       30.02F
FLAGSTAFF      SUNNY     28  10  46 NW12G17   29.86F WCI  18

$$

REGIONAL REPORTS    NEVADA/IDAHO/WYOMING

CITY           SKY/WX    TMP DP  RH WIND       PRES   REMARKS
LAS VEGAS, NV  MOSUNNY   48   8  19 N20G28    30.03F
ELY            CLOUDY    21  10  62 N8        30.04F WCI  11
ELKO           FLURRIES  28  16  60 NW13      30.10S WCI  17
POCATELLO, ID  MOSUNNY   21  17  84 SW7       30.09S WCI  12
BURLEY         CLOUDY    25  19  78 W7        30.10S WCI  17
EVANSTON, WY   LGT SNOW  19  12  74 NW5       29.88S WCI  12
ROCK SPRINGS   LGT SNOW  16  10  77 NE16      29.88S WCI   1
KEMMERER       LGT SNOW  19  10  68 CALM      29.88S VSB 3/4

$$


USA.gov is the U.S. government's official web portal to all federal, state and local government web resources and services.